Volver al catálogo

DELTA 1 DEB

ActivoPO
NORAD 21545·DEBRIS·🇺🇸 United States

Lanzado Jun 12, 1975 desde Vandenberg Space Force Base

Loading…

Próximos Pases (próximas 24 horas)

TLE

ActualizadoSource: Space-Track

Época: Sep 14, 2026, 07:15 UTC

1 21545U 75052GZ  26257.30229128  .00000146  00000-0  39088-3 0  9997
2 21545  99.7018  30.7981 0230384 224.3993 164.0424 13.22318055704667

Sigue DELTA 1 DEB en tiempo real con AllMySat

Download on the App Store